User: anonymous   Login
Location: Unspecified
(0.0000°N, 0.0000°E)
Time: 05:30:20
(UTC+01:00)
Language:

Meteor PRIRODA - Orbit

View from above orbital plane
View from above orbital plane
View from above satellite
View from above satellite

Ground track
Ground track

The orbit data is extracted from the following two-line orbital elements,

1 12585U 81065A   17051.99367216  .00001051  00000-0  51668-4 0  9995
2 12585  97.4186  33.0761 0016633  86.7692 273.5446 15.20096321944619
Epoch (UTC): 20 February 2017 23:50:53
Eccentricity: 0.0016633
inclination: 97.4186°
perigee height: 494 km
apogee height: 517 km
right ascension of ascending node: 33.0761°
argument of perigee: 86.7692°
revolutions per day: 15.20096321
mean anomaly at epoch: 273.5446°
orbit number at epoch: 94461

The dashed part of the orbit path shows where the satellite is in the earth's shadow,  

DLR